Victoria, TX

8:20 PM CST on December 15, 2019 (GMT -0600)
Victoria Regional

Weather History for KVCT - October, 2019

Change the Weather History Date:

Tuesday, October 15, 2019

  Actual Average Record
Temperature  
Mean Temperature 86 °F 72 °F  
Max Temperature 95 °F 84 °F 98 °F (1925)
Min Temperature 77 °F 61 °F 43 °F (1995)
Degree Days  
Heating Degree Days 0 0  
Month to date heating degree days 0  
Since 1 July heating degree days 1  
Cooling Degree Days 21 8  
Month to date cooling degree days 142  
Year to date cooling degree days 2940  
Growing Degree Days 36 (Base 50)    
Moisture  
Dew Point 74 °F    
Average Humidity 75    
Maximum Humidity 94    
Minimum Humidity 46    
Precipitation  
Precipitation 0.00 in 0.16 in 2.88 in (1967)
Month to date precipitation 2.21  
Year to date precipitation 33.24  
Snow  
Snow - 0.00 in 0.00 in (2002)
Month to date snowfall 0.0  
Since 1 July snowfall 0.0  
Since 1 September snowfall 0.0  
Snow Depth -    
Sea Level Pressure  
Sea Level Pressure 29.90 in    
Wind  
Wind Speed 8 mph ()    
Max Wind Speed 16 mph    
Max Gust Speed 20 mph    
Visibility 9.1 miles    
Events      
T = Trace of Precipitation, MM = Missing Value Source: Averaged Metar Reports

Daily Weather History Graph

Daily Weather History Graph

Search for Another Location

Airport or City:

Astronomy

Oct. 15, 2019 Rise Set
Actual Time 7:28 AM CDT 6:57 PM CDT
Civil Twilight 7:04 AM CDT 7:21 PM CDT
Nautical Twilight 6:37 AM CDT 7:49 PM CDT
Astronomical Twilight 6:09 AM CDT 8:16 PM CDT
Moon 8:24 PM CDT (10/15) 8:56 AM CDT (10/15)
Length of Visible Light 12h 17m
Length of Day
11h 29m
Full, 97% of the Moon is Illuminated
Oct 15
Full
Oct 21
Last Quarter
Oct 27
New
Nov 4
First Quarter
Nov 12
Full

Hourly Weather History & Observations

Time (CDT) Temp. Heat Index Dew Point Humidity Pressure Visibility Wind Dir Wind Speed Gust Speed Precip Events Conditions
12:51 AM 78.1 °F - 75.0 °F 90% 29.93 in 9.0 mi SSE 6.9 mph - N/A   Clear
1:51 AM 78.1 °F - 75.0 °F 90% 29.92 in 9.0 mi South 5.8 mph - N/A   Clear
2:51 AM 79.0 °F - 75.9 °F 90% 29.91 in 9.0 mi South 10.4 mph - N/A   Clear
3:51 AM 79.0 °F - 75.9 °F 90% 29.91 in 8.0 mi South 8.1 mph - N/A   Clear
4:51 AM 78.1 °F - 75.9 °F 93% 29.91 in 7.0 mi South 5.8 mph - N/A   Scattered Clouds
5:03 AM 78.1 °F - 75.9 °F 93% 29.91 in 7.0 mi South 4.6 mph - N/A   Mostly Cloudy
5:13 AM 78.1 °F - 75.9 °F 93% 29.91 in 7.0 mi South 5.8 mph - N/A   Scattered Clouds
5:51 AM 78.1 °F - 75.9 °F 93% 29.91 in 7.0 mi South 5.8 mph - N/A   Clear
6:51 AM 78.1 °F - 75.0 °F 90% 29.92 in 7.0 mi South 5.8 mph - N/A   Partly Cloudy
7:51 AM 77.0 °F - 75.0 °F 94% 29.92 in 6.0 mi South 4.6 mph - N/A   Partly Cloudy
8:51 AM 80.1 °F 85.4 °F 75.9 °F 87% 29.94 in 9.0 mi South 5.8 mph - N/A   Scattered Clouds
9:34 AM 82.0 °F 89.4 °F 75.9 °F 82% 29.95 in 10.0 mi South 9.2 mph - N/A   Mostly Cloudy
9:51 AM 82.9 °F 90.2 °F 75.0 °F 77% 29.94 in 10.0 mi South 12.7 mph - N/A   Mostly Cloudy
9:58 AM 82.4 °F 89.5 °F 75.2 °F 79% 29.94 in 10.0 mi South 15.0 mph - N/A   Mostly Cloudy
10:51 AM 86.0 °F 92.2 °F 72.0 °F 63% 29.94 in 10.0 mi South 13.8 mph - N/A   Mostly Cloudy
10:58 AM 86.0 °F 92.2 °F 72.0 °F 63% 29.94 in 10.0 mi South 12.7 mph - N/A   Mostly Cloudy
11:51 AM 89.1 °F 96.0 °F 72.0 °F 57% 29.93 in 10.0 mi South 9.2 mph - N/A   Mostly Cloudy
11:58 AM 88.0 °F 93.8 °F 71.1 °F 57% 29.93 in 10.0 mi SSW 5.8 mph - N/A   Scattered Clouds
12:51 PM 91.9 °F 98.4 °F 71.1 °F 50% 29.91 in 10.0 mi South 13.8 mph - N/A   Mostly Cloudy
1:51 PM 93.0 °F 100.1 °F 71.1 °F 49% 29.87 in 10.0 mi Variable 5.8 mph - N/A   Scattered Clouds
2:51 PM 91.9 °F 97.4 °F 70.0 °F 48% 29.85 in 10.0 mi Variable 3.5 mph - N/A   Scattered Clouds
3:51 PM 95.0 °F 102.5 °F 71.1 °F 46% 29.83 in 10.0 mi SSE 16.1 mph 19.6 mph N/A   Scattered Clouds
4:51 PM 93.0 °F 100.1 °F 71.1 °F 49% 29.82 in 10.0 mi South 16.1 mph - N/A   Clear
5:51 PM 90.0 °F 96.4 °F 71.1 °F 54% 29.81 in 10.0 mi South 16.1 mph - N/A   Clear
6:51 PM 84.9 °F 91.4 °F 73.0 °F 67% 29.83 in 10.0 mi SSE 15.0 mph - N/A   Clear
7:51 PM 82.0 °F 87.9 °F 73.9 °F 76% 29.84 in 10.0 mi South 11.5 mph - N/A   Clear
8:51 PM 80.1 °F 84.5 °F 73.9 °F 81% 29.86 in 10.0 mi SSE 8.1 mph - N/A   Clear
9:51 PM 79.0 °F - 73.9 °F 84% 29.88 in 10.0 mi South 6.9 mph - N/A   Clear
10:51 PM 78.1 °F - 73.9 °F 87% 29.89 in 9.0 mi South 6.9 mph - N/A   Clear
11:51 PM 77.0 °F - 73.9 °F 90% 29.89 in 8.0 mi South 6.9 mph - N/A   Clear